FW2970 Weather Reports


time (UTC)temp
F
wind
direction
speed
knots
gust
knots
rain 1hr
in
rain 24hr
in
rain mn
in
humidity
%
barometer
mb
20260505091503 51 218 8.7 11.3 0.00 0.00 0.00 91 1013.2
20260505090008 51 196 6.1 9.6 0.00 0.00 0.00 90 1013.1
20260505084503 51 204 7.0 10.4 0.00 0.00 0.00 90 1013.0
20260505083001 51 206 7.0 17.4 0.00 0.00 0.00 90 1013.2
20260505081502 51 212 6.1 9.6 0.00 0.00 0.00 91 1013.3
20260505080002 51 215 8.7 12.2 0.00 0.00 0.00 91 1013.3
20260505074601 50 212 7.0 9.6 0.00 0.00 0.00 92 1013.5
20260505073102 51 216 7.0 9.6 0.00 0.00 0.00 91 1013.5
20260505071600 51 221 7.0 10.4 0.00 0.00 0.00 90 1013.5
20260505070100 51 203 8.7 13.9 0.00 0.00 0.00 90 1013.5
20260505064558 51 213 9.6 13.0 0.00 0.00 0.00 90 1013.4
20260505063102 52 207 10.4 14.8 0.00 0.00 0.00 89 1013.3
20260505061602 51 208 10.4 15.6 0.00 0.00 0.00 90 1013.4
20260505060056 51 217 10.4 13.0 0.00 0.00 0.00 91 1013.4
20260505054558 51 229 8.7 12.2 0.00 0.00 0.00 91 1013.6
20260505053054 51 226 12.2 17.4 0.00 0.00 0.00 90 1013.5
20260505051554 51 226 12.2 14.8 0.00 0.00 0.00 90 1013.6
20260505050124 51 240 11.3 17.4 0.00 0.00 0.00 90 1013.6
20260505041605 51 218 13.0 17.4 0.00 0.00 0.00 90 1013.6
20260505040059 51 218 11.3 16.5 0.00 0.00 0.00 89 1014.0
20260505034552 51 240 9.6 12.2 0.00 0.00 0.00 89 1014.1
20260505033051 51 228 11.3 16.5 0.00 0.00 0.00 89 1014.2
20260505031551 51 218 10.4 16.5 0.00 0.00 0.00 88 1014.1
20260505030049 51 224 10.4 16.5 0.00 0.00 0.00 87 1014.1
20260505024550 51 221 12.2 17.4 0.00 0.00 0.00 87 1014.2
20260505023051 52 221 11.3 18.2 0.00 0.00 0.00 86 1014.2
20260505021547 52 231 12.2 18.2 0.00 0.00 0.00 85 1014.2
20260505020044 52 217 13.9 20.9 0.00 0.00 0.00 84 1014.0
20260505014602 52 233 13.9 20.0 0.00 0.00 0.00 84 1013.9
20260505013043 52 229 15.6 21.7 0.00 0.00 0.00 83 1013.6
20260505011542 52 217 18.2 24.3 0.00 0.00 0.00 84 1013.2
20260505010042 53 212 20.9 26.1 0.00 0.00 0.00 82 1012.9
20260505004544 53 214 20.0 27.8 0.00 0.00 0.00 81 1012.7
20260505003040 53 208 18.2 22.6 0.00 0.00 0.00 80 1012.6
20260505001547 52 210 15.6 21.7 0.00 0.00 0.00 81 1012.5
20260505000049 52 216 17.4 23.5 0.00 0.00 0.00 80 1012.1
20260504234555 52 215 18.2 22.6 0.00 0.00 0.00 79 1012.1
20260504233040 52 203 20.0 24.3 0.00 0.00 0.00 79 1011.9
20260504231640 53 218 20.0 26.9 0.00 0.00 0.00 78 1011.9
20260504230038 53 226 20.0 25.2 0.00 0.00 0.00 76 1011.9
20260504224543 53 221 20.0 26.1 0.00 0.00 0.00 77 1011.8
20260504223043 53 217 21.7 26.9 0.00 0.00 0.00 76 1011.8
20260504221538 53 217 21.7 27.8 0.00 0.00 0.00 77 1011.8
20260504220037 53 195 20.9 27.8 0.00 0.00 0.00 76 1011.8
20260504214536 53 214 20.9 26.9 0.00 0.00 0.00 77 1011.8
20260504213054 53 221 20.9 32.2 0.00 0.00 0.00 75 1011.8
20260504211538 53 224 21.7 27.8 0.00 0.00 0.00 77 1012.1
20260504210035 53 213 20.9 26.9 0.00 0.00 0.00 75 1012.1
20260504204535 53 222 21.7 26.9 0.00 0.00 0.00 76 1011.9
20260504203036 53 221 19.1 27.8 0.00 0.00 0.00 75 1011.9
20260504201535 53 217 19.1 26.1 0.00 0.00 0.00 76 1011.7
20260504200033 53 212 20.9 28.7 0.00 0.00 0.00 74 1011.8
20260504194531 54 229 20.0 28.7 0.00 0.00 0.00 72 1011.9
20260504193034 55 217 19.1 26.1 0.00 0.00 0.00 70 1012.0
20260504191529 54 212 18.2 26.1 0.00 0.00 0.00 72 1012.1
20260504190128 54 203 18.2 23.5 0.00 0.00 0.00 75 1012.2
20260504184529 54 207 19.1 26.1 0.00 0.00 0.00 75 1012.3
20260504183028 54 216 20.0 26.1 0.00 0.00 0.00 74 1012.3
20260504181527 54 214 20.0 26.1 0.00 0.00 0.00 75 1012.2
20260504180026 54 211 20.9 26.9 0.00 0.00 0.00 75 1012.1
20260504174526 54 219 20.9 28.7 0.00 0.00 0.00 74 1012.1
20260504173034 54 205 17.4 23.5 0.00 0.00 0.00 76 1012.2
20260504171524 53 215 17.4 24.3 0.00 0.00 0.00 78 1012.3
20260504140111 54 241 18.2 22.6 0.00 0.00 0.00 64 1013.3